Powrót do katalogu

STARLINK-3559

AktywnyŁącznośćVLEO
NORAD 51860·PAYLOAD·🇺🇸 United States

Wystrzelony Mar 3, 2022 z Cape Canaveral Space Force Station

Loading…

Następne Przeloty (najbliższe 24 godziny)

TLE

ŚwieżeSource: CelesTrak SupGP

Epoka: Sep 14, 2026, 21:42 UTC

1 51860C 22022J   26257.90465278  .00026104  00000+0  77124-3 0  2574
2 51860  53.1591 229.5723 0001341  96.2147  71.1687 15.34377766    14

Śledź STARLINK-3559 w czasie rzeczywistym z AllMySat

Download on the App Store